www.pogodaiklimat.ru

Погода и климат >> Архив погоды >> Россия >> Ханты-Мансийский АО >> Нижневартовск


АРХИВ ПОГОДЫ в Нижневартовске

Время (UTC), дата Ветер
(напр.,м/с)
 
Видим.   Явления Облачность Т
(С)
Тd
(С)
f
(%)
Тe
(С)
Тes
(С)
Комфортность P
(гПа)
Po
(гПа)
Тmin
(С)
Tmax
(С)
R
(мм)
R24
(мм)
S
(см)
21 15.02 Ю 5 20 км 6/0
[Ac trans]
-8.6 -13.4 68 -16 -16 тепло 1004.8 997.7
00 16.02 Ю 5 8000 м слаб. снег 10/10 960 м
[Sc]
-10.4 -14.0 75 -18 -18 тепло 1004.4 997.3
03 16.02 ЮЗ 4 3500 м слаб. ливневой снег 9/6 600 м
[Cb calv Ac trans]
-10.3 -12.3 85 -17 -17 тепло 1004.9 1007.8 -10.6 0.2
06 16.02 ЮЗ 4 50 км {ливн. осадки, снег} 5/5 330 м
[St]
-10.3 -13.1 80 -17 -17 тепло 1005.3 998.2 -12.6
09 16.02 ЮЗ 4 6000 м слаб. ливневой снег 8/5 930 м
[Cb calv Ci sp]
-8.3 -11.5 78 -15 -15 тепло 1006.2 999.1
12 16.02 ЮЗ 3 9000 м слаб. ливневой снег 10/5 630 м
[Cb calv Ci sp]
-10.4 -13.2 80 -16 -16 тепло 1006.9 999.8
15 16.02 ЮЗ 3 20 км {ливн. осадки} 9/5 1080 м
[Sc Ac trans]
-11.9 -12.5 95 -18 -18 по сезону 1007.7 1000.6 -8.3 0.2
18 16.02 Ю 1 7000 м дымка {ливн. осадки, снег} 3/3 600 м
[Sc]
-14.0 -14.6 95 -16 -16 тепло 1007.6 1000.4
21 16.02 Ю 2 20 км в посл. час ливневой снег 3/3 1000 м
[Cb calv]
-16.0 -17.3 90 -21 -21 по сезону 1007.1 999.9
00 17.02 ЮВ 1 20 км в посл. час ливневой снег 6/0
[Ac trans]
-15.3 -16.6 90 -18 -18 тепло 1005.4 998.2
03 17.02 ЮВ 2 2000 м снег {ливн. осадки} 10/0 1080 м
[As op]
-14.2 -15.5 90 -19 -19 по сезону 1004.1 996.9 -17.1 0.6 76
06 17.02 ЮВ 3 50 км {ливн. осадки, снег} 10/5 800 м
[Sc Ac trans Ci fib]
-13.9 -15.2 90 -20 -20 по сезону 1002.1 994.9
09 17.02 ЮВ 4 6000 м слаб. снег 10/0
[As op]
-11.5 -12.8 90 -19 -18 по сезону 1000.1 993.1
12 17.02 ЮВ 3 50 км {снег} 10/0
[Ac trans Ci sp]
-11.2 -12.5 90 -17 -17 по сезону 999.3 992.3
15 17.02 Ю 2 20 км 9/0
[Ac trans]
-11.6 -12.9 90 -16 -16 тепло 998.5 991.5 -11.0 0.3
18 17.02 Ю 1 9000 м слаб. снег 10/6 750 м
[Sc As op]
-11.9 -12.5 95 -14 -14 тепло 997.9 990.9
21 17.02 Ю 2 10 км снежные кристаллы 10/0
[As op]
-11.9 -12.5 95 -16 -16 тепло 997.8 990.8
00 18.02 ЮЗ 1 10 км снежные кристаллы 10/0
[As op]
-11.8 -12.4 95 -14 -14 тепло 998.0 991.0
03 18.02 штиль 0 50 км {снег} 3/0
[Ac trans]
-15.7 -17.0 90 -16 -16 тепло 998.6 991.4 -15.7 0.2 76
06 18.02 З 1 50 км {снег} 8/0
[Ci fib]
-11.7 -13.0 90 -14 -12 тепло 999.6 992.6 -17.7
09 18.02 ЮЗ 2 50 км ясно -10.3 -13.9 75 -15 -13 тепло 1000.0 993.0
12 18.02 Ю 2 50 км 6/0
[Ac trans]
-12.4 -15.9 75 -17 -17 по сезону 993.3 986.2
15 18.02 ЮВ 3 7000 м дымка 8/8 450 м
[St]
-11.0 -12.3 90 -17 -17 по сезону 1000.9 993.9 -9.1
18 18.02 ЮВ 1 20 км 3/3 600 м
[Sc]
-13.1 -13.7 95 -15 -15 тепло 1001.4 994.2
21 18.02 Ю 1 20 км ясно -15.2 -15.8 95 -18 -18 тепло 1002.1 994.9
00 19.02 штиль 0 3600 м дымка 6/0
[Ci fib]
-19.6 -20.8 90 -20 -20 по сезону 1002.8 995.4
03 19.02 Ю 2 1300 м в посл. час туман 9/9 90 м
[St]
-17.7 -19.6 85 -23 -23 по сезону 1003.8 996.4 -20.6 76
06 19.02 ЮВ 1 50 км {туман} 4/4 300 м
[Sc]
-14.8 -16.1 90 -17 -16 тепло 1003.8 996.6
09 19.02 ЮВ 2 50 км 10/4 600 м
[Sc Ac trans]
-11.0 -12.3 90 -16 -15 тепло 1003.2 996.1
12 19.02 ЮВ 3 10 км снежные кристаллы 10/10 1000 м
[Sc]
-10.2 -11.5 90 -16 -16 по сезону 1003.7 996.6
15 19.02 Ю 3 20 км {снег} 8/0
[Ac trans]
-10.5 -11.1 95 -16 -16 тепло 1004.2 997.1 -10.2 0.0
18 19.02 Ю 2 10 км снежные кристаллы 10/0
[As trans]
-11.8 -12.4 95 -16 -16 тепло 1004.7 997.6
21 19.02 Ю 2 20 км {снег} 6/0
[Ac trans]
-11.4 -12.0 95 -16 -16 тепло 1004.7 997.6
00 20.02 Ю 3 20 км {снег} 9/0
[Ac trans]
-12.0 -12.6 95 -18 -18 тепло 1005.3 998.2
03 20.02 Ю 2 50 км 10/0
[Ac As]
-11.2 -11.8 95 -16 -16 тепло 1006.2 999.1 -12.6 0.2 75
06 20.02 Ю 1 50 км 10/0
[Ac trans Ci sp]
-9.4 -10.1 95 -12 -10 тепло 1007.4 1000.3
09 20.02 ЮЗ 1 50 км 10/0
[Ci sp]
-7.4 -10.4 79 -10 -8 тепло 1008.1 1001.1
12 20.02 ЮЗ 1 10 км снежные кристаллы 10/10 1020 м
[Sc]
-8.1 -10.4 83 -10 -10 тепло 1010.1 1003.0
15 20.02 С 1 20 км {снег} 10/10 420 м
[St]
-9.3 -10.0 95 -12 -12 тепло 1010.8 1003.7 -7.2 0.0
18 20.02 Ю 1 5000 м слаб. снег 10/8 420 м
[Frnb As op]
-8.7 -9.8 92 -11 -11 тепло 1011.4 1004.3
21 20.02 ЮВ 1 5000 м слаб. снег 10/10 540 м
[Sc]
-8.7 -9.4 95 -11 -11 тепло 1012.2 1005.0
00 21.02 В 2 4600 м слаб. снег 10/10 870 м
[Sc]
-9.8 -10.6 94 -14 -14 тепло 1012.8 1005.6
03 21.02 СВ 2 2800 м слаб. снег 10/10 630 м
[Sc]
-10.8 -11.4 95 -15 -15 тепло 1013.7 1006.5 -11.1 0.2 76
06 21.02 В 3 5000 м дымка {снег} 6/6 630 м
[Sc]
-8.1 -9.5 90 -14 -13 тепло 1014.5 1007.3
09 21.02 ЮВ 2 50 км 10/8 700 м
[Sc Ci sp]
-7.4 -10.4 79 -12 -12 тепло 1014.6 1007.6
12 21.02 ЮВ 2 50 км 8/6 540 м
[Sc Ci sp]
-8.4 -10.7 83 -13 -13 тепло 1015.2 1008.0
15 21.02 Ю 4 20 км {снег} 6/0
[Ci fib]
-10.2 -11.5 90 -17 -17 по сезону 1015.6 1008.4 -6.7 0.2
18 21.02 Ю 4 20 км {снег} 10/0
[As trans]
-10.1 -11.4 90 -17 -17 по сезону 1015.5 1008.3
21 21.02 Ю 3 20 км 10/5 360 м
[Frnb As trans]
-9.6 -10.8 91 -16 -16 тепло 1015.4 1008.2
00 22.02 Ю 4 20 км 9/3 300 м
[St Ac trans]
-8.1 -9.5 90 -15 -15 тепло 1015.6 1008.4
03 22.02 Ю 4 50 км 10/10 540 м
[Sc]
-8.0 -9.8 87 -15 -15 тепло 1016.3 1009.1 -11.8 76
06 22.02 Ю 5 6000 м слаб. снег 10/10 1110 м
[Sc]
-7.9 -10.1 84 -15 -15 тепло 1017.3 1010.1
09 22.02 Ю 4 4100 м слаб. снег 10/0 1110 м
[As op]
-7.8 -10.5 81 -15 -14 тепло 1018.5 1011.3
12 22.02 Ю 4 4300 м слаб. снег 10/0 1000 м
[As op]
-7.8 -10.0 84 -15 -15 по сезону 1020.3 1013.1
15 22.02 ЮЗ 3 10 км снежные кристаллы 10/0
[As op]
-8.2 -9.6 90 -14 -14 тепло 1021.4 1014.2 -7.8 1
18 22.02 ЮЗ 3 20 км {снег} 10/10 570 м
[Sc]
-6.5 -8.1 88 -12 -12 тепло 1022.1 1015.0

 

Местоположение метеостанции Нижневартовск (Ханты-Мансийский АО, Россия): широта 60.92 долгота 76.60 высота над уровнем моря 55 м.

В архиве по умолчанию представлена погода в Нижневартовске за последнюю неделю. Архивные данные за месяц целиком и за предыдущие месяцы, начиная с января 2011 года, Вы можете получить, выбрав интересующий диапазон дат из раскрывающегося списка и нажав кнопку "Ввод!".


*Определитесь, кто Вы:
робот инопланетянин человек

Внимание! Время в таблицах - всемирное. Для получения местного времени необходимо прибавить поправку, которая равна 5 ч.

Смотрите также архив погоды в соседних городах и на ближайших метеорологических станциях:

Погода в Александровском (Томская область, Россия) (88 км)
Погода в Ваховске (Ханты-Мансийский АО, Россия) (117 км)
Погода в Радужном (Ханты-Мансийский АО, Россия) (142 км)
Погода в Угуте (Ханты-Мансийский АО, Россия) (148 км)
Погода в Сургуте (Ханты-Мансийский АО, Россия) (177 км)
Погода в Когалыме (Ханты-Мансийский АО, Россия) (182 км)
Погода в Ларьяке (Ханты-Мансийский АО, Россия) (198 км)
Погода в Среднем Васюгане (Томская область, Россия) (210 км)
Погода в Нефтеюганске (Ханты-Мансийский АО, Россия) (215 км)
Погода в Прохоркино (Томская область, Россия) (222 км)

Пояснения к столбцам:

Ветер - указаны скорость ветра в м/с - средняя за 10 мин, порывы в срок и между сроками (в фигурных скобках) и направление, откуда дует ветер: С - северный, СВ - северо-восточный, В - восточный, ЮВ - юго-восточный, Ю - южный, ЮЗ - юго-западный, З - западный, СЗ - северо-западный.
Видимость - горизонтальная дальность видимости в метрах или километрах. При видимости от 1 до 10 км при отсутствии осадков обычно наблюдается дымка, при ухудшении видимости до 1 км и менее - туман. В сухую погоду видимость может ухудшаться дымом, пылью или мглою.
Явления - указаны атмосферные явления, наблюдавшиеся в срок или в последний час перед сроком; фигурными скобками обозначены явления, наблюдавшиеся между сроками (за 1-3 часа до срока); квадратными скобками обозначены град или гололедные отложения с указанием их диаметра в мм.
Облачность - указаны через наклонную черту общая и нижняя облачность в баллах и высота нижней границы облаков в метрах; квадратными скобками обозначены формы облаков: Ci - перистые, Cs - перисто-слоистые, Cc - перисто-кучевые, Ac - высококучевые, As - высокослоистые, Sc - слоисто-кучевые, Ns - слоисто-дождевые, Cu - кучевые, Cb - кучево-дождевые. Подробнее классификацию облаков см. в Атласе облаков (PDF).
T - Температура воздуха - температура, измеренная на высоте 2 м над землей.
Td - Температура точки росы - температура, при понижении до которой содержащийся в воздухе водяной пар достигнет насыщения.
f - Относительная влажность воздуха - влажноcть воздуха, измеренная на высоте 2 м над землей.
Te - Эффективная температура - температура, которую ощущает одетый по сезону человек в тени. Характеристика душности погоды. При расчете учитывается влияние влажности воздуха и скорости ветра на теплоощущения человека.
Tes - Эффективная температура на солнце - температура, которую ощущает человек, с поправкой на солнечный нагрев. Характеристика знойности погоды. Зависит от высоты солнца над горизонтом, облачности и скорости ветра. Ночью, в пасмурную погоду, а также при ветре 12 м/с и более поправка равна нулю.
P - Атмосферное давление - приведенное к уровню моря атмосферное давление.
Po - Атмосферное давление - измеренное на уровне метеостанции атмосферное давление.
Tmin - Минимальная температура - минимум температуры воздуха на высоте 2 м над землей.
Tmax - Максимальная температура - максимум температуры воздуха на высоте 2 м над землей.
R - Количество осадков - Количество выпавших осадков за период времени, мм. При наведении курсора мыши на число - период времени, за который выпало указанное количество осадков.
R24 - Количество осадков - Количество выпавших осадков за 24 часа, мм.
S - Снежный покров - Высота снежного покрова, см. При наведении курсора мыши на число - состояние снежного покрова и степень покрытия местности в баллах.